Temp
87 86 89 87 89 70 82 82 72 77 87 81 68 68 69 66 62 58 66 62 65 70 71 73 74 74 73 74 72 70 69 71 72 75 78 80 83 87 87 88 88 89 91 91 92 91 92 90 89 91 88 89 88 87 87 86 86 87 87 86 86 87 86
88 92 90 89 90 89 82 74 79 89 92 85 72 59 62 59 56 54 62 59 58 61 55 70 70 71 70 70 69 70 69 70 69 74 76 77 79 83 87 87 88 90 90 91 92 93 93 92 92 91 88 91 89 89 88 87 86 86 87 88 88 88 87
88 91 89 85 89 92 83 81 91 77 68 66 72 66 54 55 55 51 55 59 62 63 59 64 65 67 68 70 68 67 68 69 69 73 77 79 81 82 84 86 87 88 90 90 90 91 94 93 89 92 92 93 92 91 91 90 88 89 89 90 89 89 89
86 86 84 70 77 87 89 90 84 88 81 74 67 68 67 63 53 55 55 60 56 66 64 68 66 70 71 72 69 67 68 70 72 74 78 78 79 80 83 85 88 89 90 91 90 90 92 91 92 92 92 94 94 93 91 91 91 90 90 90 88 88 90
86 74 79 75 79 75 78 78 76 80 79 85 79 76 69 64 57 60 54 52 59 67 71 71 69 72 73 74 71 69 67 71 74 76 78 78 79 79 83 85 87 89 89 90 90 91 92 91 91 91 91 91 91 94 93 92 90 90 91 92 90 89 89
74 78 86 84 84 84 81 79 76 79 76 71 65 61 78 74 66 56 58 52 61 71 73 71 71 74 76 77 75 68 68 70 72 77 78 78 78 79 81 84 87 89 89 89 92 91 90 86 87 90 91 93 92 94 93 93 89 88 89 90 89 89 89
77 82 88 90 89 89 87 85 80 84 82 79 70 56 66 74 74 74 66 59 59 74 73 74 74 74 77 70 70 69 70 70 74 77 80 80 79 79 80 83 86 88 89 89 90 87 86 84 86 86 82 87 93 94 92 92 89 89 92 91 91 88 89
79 86 91 90 89 89 85 86 87 84 78 81 77 72 75 68 70 67 62 57 60 71 75 73 72 73 72 69 70 70 72 72 76 77 79 78 77 75 75 80 81 82 85 87 87 86 85 85 84 82 82 82 83 88 92 93 92 92 93 91 90 89 89
69 74 83 82 87 86 81 81 85 86 86 85 84 82 79 68 70 71 61 52 56 65 70 73 71 73 71 70 70 69 70 74 76 75 76 77 77 76 74 76 79 79 81 84 84 84 82 82 82 81 80 79 80 80 81 88 88 90 90 89 89 88 89
54 55 60 63 69 75 81 83 84 85 83 82 78 71 72 59 69 71 64 58 61 62 66 72 72 72 71 72 71 70 74 75 73 70 70 72 72 72 75 76 77 78 78 80 82 82 84 83 81 79 78 79 78 79 81 88 89 91 89 89 89 88 88
63 62 66 78 81 80 74 79 81 83 86 86 83 79 72 67 71 68 65 66 60 60 62 67 70 68 68 68 69 71 73 73 70 71 71 71 70 71 73 73 74 76 77 76 78 80 80 78 79 80 78 76 78 80 82 87 89 90 89 87 87 87 87
71 75 75 77 79 78 80 79 79 82 82 84 80 74 71 77 71 61 64 67 65 65 67 66 66 67 66 67 70 70 73 71 71 70 70 69 67 70 70 72 71 73 75 76 76 78 78 75 74 75 76 74 76 75 77 85 85 84 84 87 87 86 86
76 78 78 80 81 81 79 80 82 80 82 82 78 78 81 80 71 63 64 68 66 68 72 73 69 68 66 69 69 69 72 73 70 70 70 70 69 68 68 70 71 71 74 75 75 76 75 75 74 73 74 75 75 77 76 76 76 78 80 79 79 81 85
76 78 78 81 79 78 80 80 83 83 82 81 81 81 84 82 72 71 71 71 70 74 74 76 76 76 74 73 72 69 71 70 70 69 69 70 68 68 68 69 71 73 74 75 75 75 76 77 76 73 74 77 78 75 73 76 76 76 76 74 73 75 75
71 76 80 81 79 78 76 81 81 85 84 82 84 82 82 82 79 75 73 70 68 76 78 77 77 77 77 76 76 76 75 74 73 71 71 71 69 70 70 69 69 73 75 75 76 76 76 77 77 75 77 78 79 78 77 76 74 74 73 72 71 75 75
67 75 77 78 80 80 77 76 78 73 76 77 78 76 79 75 74 71 70 66 66 74 79 77 76 76 75 73 73 74 76 76 75 74 72 70 69 71 71 71 70 70 70 72 74 76 76 77 77 77 76 77 78 77 77 75 75 75 73 74 75 75 73
64 73 76 75 77 75 70 69 68 74 76 75 75 75 75 75 76 70 66 66 73 75 76 74 74 76 75 74 74 73 74 75 74 72 73 70 69 69 68 68 69 69 68 68 68 67 70 74 74 74 75 75 76 76 76 76 77 76 75 75 73 73 73
63 71 73 74 67 57 58 69 77 76 71 71 69 69 72 74 77 71 74 74 76 76 75 74 74 74 74 74 75 76 72 71 71 72 72 71 71 71 71 70 69 67 68 68 67 68 68 67 69 71 73 73 73 74 74 75 76 76 76 74 73 72 72
62 68 69 61 54 57 66 76 79 78 77 76 71 71 73 74 75 72 74 74 73 75 75 75 75 76 77 77 74 74 75 74 72 71 71 70 69 69 68 68 68 67 67 67 67 67 67 67 68 70 70 71 71 72 73 73 74 74 74 74 72 73 72
67 63 62 50 52 64 73 77 79 80 78 75 73 68 71 71 73 75 74 74 74 74 75 77 78 76 76 77 75 74 74 75 74 73 71 71 70 68 68 67 66 67 67 67 66 65 67 68 68 68 68 69 69 68 70 71 70 71 71 71 71 72 72
59 62 59 54 61 65 69 66 71 76 67 70 67 60 65 71 73 74 72 74 74 76 76 77 75 74 74 70 71 76 76 76 76 75 73 72 71 70 69 69 68 68 69 68 68 68 68 68 67 66 68 68 68 68 68 69 68 69 70 70 70 70 70
67 61 56 58 54 49 56 64 74 82 81 79 75 70 64 71 73 74 73 71 75 74 75 74 74 74 68 63 63 72 77 78 77 76 75 75 73 73 71 71 71 70 71 71 70 70 69 69 69 69 69 68 67 67 67 67 67 66 67 68 70 70 70
64 61 56 54 50 51 60 65 72 78 81 78 75 68 60 69 71 72 69 73 73 73 73 72 75 70 64 61 64 73 77 78 78 77 76 76 76 75 74 73 72 73 73 73 72 72 71 70 70 71 71 70 68 66 67 67 67 66 66 67 69 69 71
64 62 58 53 58 55 63 69 74 77 81 79 71 55 55 68 71 69 65 66 69 70 72 75 73 69 62 62 66 76 78 79 79 78 76 76 76 77 77 77 76 75 74 73 73 73 72 71 73 72 72 71 69 68 68 69 68 67 67 68 69 70 70
63 59 60 59 57 66 72 73 76 79 80 74 56 49 60 71 71 67 66 64 68 71 74 74 69 73 74 72 75 79 80 79 77 77 79 78 78 78 78 77 76 76 76 75 75 74 74 75 76 76 74 71 69 69 69 69 68 68 70 71 71 70 71
61 62 59 55 58 65 72 75 76 77 71 56 52 66 73 71 66 66 65 64 63 63 63 64 64 73 74 75 78 77 77 77 76 78 78 78 78 78 78 77 77 76 76 75 75 76 76 76 77 76 73 70 70 69 69 69 70 71 72 72 72 72 72
65 58 55 52 43 62 75 72 74 74 63 59 69 71 73 69 65 64 63 62 62 64 62 65 65 66 69 75 76 77 76 76 76 76 76 75 76 76 76 76 78 78 76 76 76 76 77 77 76 74 73 70 69 69 68 70 72 73 73 73 73 72 72
51 53 51 48 60 68 75 71 61 67 69 72 71 71 67 70 65 63 62 63 65 67 67 67 66 66 68 70 74 75 76 76 76 76 76 77 77 78 80 80 79 80 77 76 76 76 76 75 75 74 72 70 69 68 68 71 73 73 74 74 73 73 72
58 54 59 65 71 72 75 73 70 71 70 70 73 71 71 69 68 68 65 63 65 67 67 65 65 65 65 64 68 72 75 76 76 76 76 77 78 78 78 78 78 77 75 73 74 74 74 73 73 72 72 70 69 68 69 72 72 73 73 73 73 73 73
67 69 69 71 71 72 73 75 73 72 72 70 72 72 67 70 71 73 67 69 69 70 71 67 65 64 65 67 67 67 72 76 77 77 78 78 78 78 77 76 75 75 74 74 72 71 72 73 73 73 72 72 69 69 71 72 72 72 72 72 72 72 73
62 52 66 67 68 71 73 70 72 75 75 73 73 72 72 71 72 73 75 75 72 72 73 71 68 68 70 69 70 71 73 74 75 76 75 75 76 75 74 74 74 73 73 72 72 72 71 73 74 74 73 73 72 72 72 74 73 72 71 72 72 72 73
61 58 65 68 70 71 73 73 69 69 71 73 74 74 73 71 70 71 70 71 74 71 67 69 70 69 71 71 73 74 74 74 75 73 73 73 73 74 74 74 74 74 73 72 71 71 70 72 73 73 74 73 74 74 76 76 75 73 72 72 72 72 73
65 68 68 68 69 70 71 72 72 72 72 71 72 74 74 72 69 68 69 67 67 69 69 69 68 66 67 69 69 68 69 71 72 73 72 72 72 73 73 73 74 72 72 71 70 70 70 71 72 72 72 73 74 74 74 74 74 73 72 73 73 73 74
61 61 64 68 61 59 65 70 72 73 74 74 73 73 73 72 68 67 67 67 66 68 70 69 69 67 68 70 70 70 71 71 71 71 71 72 72 73 74 74 73 72 72 71 70 70 70 70 71 71 71 72 74 75 74 74 74 72 72 72 72 73 73
58 66 68 67 66 66 68 70 73 74 75 74 72 70 71 72 71 68 66 68 70 70 72 74 71 69 71 71 72 72 71 71 72 72 72 71 71 71 73 72 71 70 70 70 70 69 69 71 70 70 71 72 73 74 74 74 73 72 72 72 72 74 74
68 72 72 73 70 66 69 72 73 73 74 74 73 74 73 73 73 74 72 72 70 70 72 72 75 75 74 75 75 73 72 73 73 73 74 74 73 72 72 72 70 69 68 68 68 68 69 70 70 71 72 72 72 73 73 73 74 73 73 73 72 72 72
64 70 73 73 72 73 75 74 74 74 74 74 72 73 74 74 74 74 73 73 73 72 72 73 74 74 74 76 76 73 73 73 73 74 73 72 74 73 73 73 71 69 70 70 70 70 71 71 71 72 71 72 73 74 73 74 73 73 73 72 71 71 71
MSLP
1006.21 1006.73 1005.97 1006.37 1005.97 1011.69 1006.89 1008.09 1011.37 1009.73 1006.65 1009.09 1013.09 1013.57 1013.53 1014.41 1015.61 1017.17 1014.57 1016.21 1015.33 1013.77 1013.45 1012.85 1012.65 1013.05 1013.57 1013.53 1013.97 1014.37 1014.65 1014.57 1014.45 1014.29 1013.61 1013.05 1012.53 1012.13 1012.29 1012.41 1012.49 1012.49 1012.45 1012.45 1012.49 1012.81 1013.05 1013.65 1013.93 1013.77 1014.13 1014.17 1014.45 1014.93 1015.25 1015.65 1015.85 1015.89 1016.05 1016.13 1016.37 1016.41 1016.57
1005.45 1004.77 1005.33 1005.81 1005.57 1005.65 1007.89 1010.33 1008.57 1005.93 1005.01 1007.17 1011.49 1016.13 1015.41 1016.61 1017.49 1018.61 1016.41 1017.21 1017.45 1016.17 1018.21 1013.97 1014.05 1013.97 1014.53 1014.41 1014.37 1014.45 1014.57 1014.49 1014.89 1014.29 1013.69 1013.33 1013.05 1012.69 1012.13 1012.17 1012.25 1012.29 1012.33 1012.45 1012.37 1012.45 1012.69 1013.05 1013.41 1013.53 1013.97 1013.73 1014.05 1014.37 1014.77 1015.29 1015.61 1015.97 1015.97 1015.97 1016.13 1016.25 1016.49
1005.53 1004.85 1005.93 1007.29 1005.85 1004.69 1007.41 1007.89 1004.93 1008.89 1012.25 1013.69 1010.89 1013.93 1018.17 1017.93 1017.61 1019.69 1018.33 1016.97 1016.13 1015.81 1017.21 1015.93 1015.61 1014.93 1014.77 1014.61 1014.93 1015.17 1014.97 1014.73 1014.61 1014.13 1013.65 1013.09 1012.73 1012.65 1012.49 1012.53 1012.41 1012.37 1012.37 1012.37 1012.25 1012.37 1012.37 1012.77 1013.37 1013.21 1013.49 1013.49 1013.73 1014.05 1014.33 1014.69 1015.25 1015.33 1015.49 1015.57 1015.77 1015.93 1016.13
1005.85 1006.33 1007.37 1011.45 1009.37 1006.33 1005.69 1005.45 1007.01 1005.69 1007.89 1010.01 1012.85 1012.81 1012.81 1014.33 1018.13 1017.61 1017.65 1016.41 1017.85 1014.73 1015.45 1014.25 1014.81 1014.13 1013.93 1014.05 1014.77 1015.13 1014.57 1014.25 1013.97 1013.69 1013.21 1012.97 1012.97 1012.81 1012.45 1012.41 1012.21 1012.21 1012.09 1012.09 1012.21 1012.37 1012.53 1012.97 1013.09 1013.17 1013.29 1013.25 1013.57 1013.77 1014.17 1014.45 1014.69 1014.81 1015.09 1015.37 1015.65 1016.05 1015.97
1005.93 1009.57 1008.17 1009.53 1008.53 1009.73 1009.13 1009.25 1009.65 1008.21 1008.57 1006.65 1009.09 1010.37 1012.37 1014.29 1016.77 1015.13 1018.17 1018.93 1016.85 1014.25 1013.21 1013.45 1013.73 1012.89 1012.89 1012.89 1013.65 1014.45 1015.21 1014.25 1013.57 1013.29 1012.93 1012.85 1012.81 1012.89 1012.29 1012.17 1012.17 1012.09 1011.93 1011.97 1012.05 1012.17 1012.13 1012.49 1012.81 1013.17 1013.37 1013.49 1013.65 1013.53 1013.89 1014.09 1014.73 1014.85 1015.01 1015.05 1015.41 1015.77 1015.81
1009.77 1007.93 1005.69 1006.65 1006.69 1006.85 1007.61 1008.37 1009.49 1008.37 1009.37 1011.05 1013.65 1014.89 1009.93 1010.49 1012.73 1014.57 1016.25 1018.93 1015.65 1012.89 1012.13 1012.97 1012.93 1012.37 1012.05 1011.77 1012.49 1014.69 1015.25 1014.81 1013.93 1013.13 1012.97 1012.65 1012.89 1012.77 1012.41 1012.05 1012.05 1012.09 1011.93 1011.97 1012.01 1012.17 1012.41 1012.93 1013.05 1013.17 1013.21 1013.17 1013.41 1013.45 1013.65 1013.85 1014.25 1014.65 1014.85 1014.85 1015.17 1015.49 1015.65
1007.85 1006.57 1004.93 1004.73 1004.97 1004.97 1005.65 1006.37 1007.89 1006.97 1007.37 1008.37 1011.77 1015.17 1012.89 1010.61 1010.57 1010.61 1013.29 1016.09 1016.37 1012.05 1012.05 1012.25 1012.29 1012.33 1011.81 1013.49 1013.93 1014.37 1014.41 1014.45 1013.65 1013.01 1012.53 1012.37 1012.45 1012.73 1012.69 1012.21 1011.81 1011.69 1011.77 1011.97 1012.13 1012.61 1013.05 1013.41 1013.37 1013.37 1013.49 1013.61 1013.41 1013.37 1013.57 1013.73 1014.25 1014.53 1014.53 1014.65 1014.77 1015.21 1015.49
1007.01 1004.93 1003.81 1004.29 1004.89 1005.17 1006.25 1005.81 1005.41 1006.45 1008.37 1007.73 1009.09 1010.93 1009.93 1012.21 1011.61 1012.65 1015.13 1016.97 1016.65 1013.13 1012.21 1012.61 1012.93 1012.77 1013.09 1013.69 1013.49 1013.25 1013.61 1013.61 1013.01 1012.85 1012.45 1012.61 1012.81 1013.17 1013.33 1012.93 1012.57 1012.05 1012.01 1011.93 1012.29 1012.73 1013.29 1013.45 1013.41 1013.65 1013.65 1013.81 1013.93 1013.81 1013.65 1013.69 1014.21 1014.33 1014.37 1014.49 1014.73 1015.13 1015.45
1010.25 1008.57 1005.65 1006.53 1005.45 1006.05 1007.33 1006.97 1005.93 1005.73 1005.77 1006.21 1006.49 1007.45 1008.33 1012.37 1011.61 1011.61 1015.05 1018.81 1017.89 1014.97 1013.85 1013.25 1013.57 1013.25 1013.61 1013.33 1013.01 1012.81 1013.25 1012.97 1013.01 1013.29 1013.13 1012.77 1013.09 1013.61 1014.25 1014.13 1013.33 1012.85 1012.69 1012.61 1012.69 1013.21 1013.61 1013.65 1013.57 1013.73 1013.81 1014.09 1014.17 1014.49 1014.93 1014.21 1014.13 1014.09 1014.21 1014.29 1014.73 1015.09 1015.41
1015.53 1014.73 1012.77 1012.25 1010.45 1009.01 1007.25 1006.69 1005.81 1005.49 1006.53 1006.93 1007.97 1010.53 1009.97 1013.93 1011.25 1010.97 1013.89 1016.73 1015.85 1015.37 1014.61 1013.53 1013.69 1013.93 1013.85 1013.53 1013.73 1013.57 1012.85 1012.97 1013.69 1014.53 1014.69 1014.13 1014.13 1014.53 1014.33 1014.13 1013.77 1013.57 1013.45 1013.25 1013.09 1013.25 1013.45 1013.65 1013.93 1014.01 1014.25 1014.57 1014.57 1014.93 1015.41 1014.37 1014.17 1014.21 1014.29 1014.29 1014.65 1015.09 1015.37
1012.17 1012.89 1011.53 1008.21 1006.61 1006.89 1009.37 1007.57 1007.05 1006.21 1005.53 1005.85 1006.57 1007.61 1009.65 1011.73 1010.29 1011.89 1013.21 1013.53 1016.49 1016.61 1016.41 1015.09 1014.41 1014.49 1014.37 1014.73 1014.57 1014.01 1013.65 1013.69 1014.65 1014.81 1014.85 1014.49 1014.97 1014.97 1014.69 1014.65 1014.49 1014.01 1013.77 1013.85 1013.77 1013.69 1013.81 1014.13 1014.25 1014.33 1014.77 1014.57 1014.89 1015.29 1015.57 1014.45 1013.97 1014.09 1014.25 1014.57 1014.81 1015.17 1015.49
1010.53 1009.65 1009.53 1008.89 1007.65 1007.57 1007.25 1007.81 1007.89 1006.97 1006.81 1005.77 1007.09 1009.13 1010.21 1007.17 1010.21 1014.17 1014.25 1013.49 1014.45 1014.89 1014.57 1015.17 1015.41 1014.85 1014.57 1014.69 1014.29 1014.33 1013.69 1014.05 1014.49 1014.77 1015.05 1015.21 1015.73 1015.37 1015.33 1015.09 1015.37 1015.13 1014.37 1014.17 1014.25 1014.25 1014.17 1014.57 1014.61 1014.89 1015.13 1014.93 1015.37 1016.17 1016.45 1014.85 1014.73 1014.81 1014.97 1015.01 1015.21 1015.53 1015.77
1009.89 1009.13 1009.13 1008.25 1007.45 1007.05 1007.53 1007.37 1006.85 1007.57 1006.85 1006.81 1008.05 1007.93 1007.09 1006.77 1009.65 1013.21 1013.73 1012.65 1013.81 1013.85 1012.97 1013.17 1014.25 1014.65 1014.93 1014.53 1014.73 1014.53 1013.93 1013.73 1014.57 1014.81 1014.77 1015.01 1015.25 1015.53 1015.73 1015.49 1015.69 1015.61 1015.17 1014.49 1014.57 1014.81 1014.97 1014.77 1014.89 1015.29 1015.41 1015.41 1016.09 1016.69 1016.89 1015.77 1015.73 1015.85 1015.65 1016.13 1016.53 1016.69 1016.45
1009.65 1008.85 1008.57 1007.85 1008.33 1008.25 1007.45 1007.13 1005.81 1005.89 1006.69 1007.09 1007.09 1006.69 1005.81 1006.61 1009.21 1010.45 1011.29 1011.49 1012.57 1012.05 1012.25 1012.17 1012.41 1012.45 1013.09 1013.57 1013.97 1014.85 1014.53 1014.81 1014.73 1015.05 1014.85 1014.93 1015.25 1015.37 1015.69 1015.41 1015.37 1015.37 1015.01 1014.65 1014.53 1014.65 1015.01 1015.29 1015.49 1016.13 1016.21 1015.73 1015.93 1016.41 1015.77 1015.49 1016.01 1016.25 1016.25 1017.09 1017.53 1017.61 1017.93
1011.05 1009.17 1008.05 1007.65 1008.13 1008.25 1008.53 1006.81 1006.37 1005.29 1005.85 1006.45 1005.97 1006.57 1006.61 1006.61 1007.93 1009.85 1010.17 1011.77 1013.13 1011.29 1010.93 1011.49 1011.69 1012.01 1012.21 1012.53 1012.93 1013.25 1013.45 1013.85 1014.13 1014.41 1014.57 1014.81 1015.13 1015.09 1015.29 1015.65 1015.45 1014.77 1014.65 1014.61 1014.65 1014.81 1015.01 1015.09 1015.29 1016.13 1015.89 1015.25 1014.89 1015.17 1015.49 1015.73 1016.01 1016.09 1016.33 1017.17 1017.45 1017.81 1018.33
1012.13 1009.65 1009.09 1008.29 1007.69 1007.85 1008.57 1008.49 1007.93 1009.33 1008.33 1008.13 1008.05 1008.85 1008.25 1009.57 1009.33 1010.41 1011.21 1012.97 1013.57 1011.73 1010.65 1011.53 1011.97 1012.29 1012.65 1013.45 1013.49 1013.49 1013.17 1013.21 1013.45 1013.89 1014.37 1014.81 1015.09 1015.13 1015.21 1015.37 1015.57 1015.45 1015.13 1015.01 1014.81 1014.77 1014.89 1015.01 1015.21 1015.29 1015.37 1015.29 1015.29 1015.65 1015.73 1016.09 1015.93 1015.77 1016.45 1017.21 1017.41 1017.65 1018.13
1012.97 1010.37 1009.45 1009.21 1008.41 1008.89 1010.13 1010.89 1011.93 1009.85 1009.13 1009.77 1009.89 1009.97 1009.89 1010.09 1009.53 1010.97 1012.45 1012.97 1011.29 1011.05 1011.01 1012.21 1012.53 1012.37 1012.61 1013.37 1013.37 1013.57 1013.49 1013.37 1013.81 1014.41 1014.57 1015.05 1015.45 1015.65 1015.73 1015.81 1015.77 1015.65 1015.73 1015.61 1015.61 1015.69 1015.61 1015.49 1015.57 1015.73 1015.65 1015.81 1015.97 1015.93 1015.93 1015.93 1015.89 1016.21 1016.53 1016.89 1017.33 1017.61 1017.73
1013.53 1011.21 1010.49 1009.89 1011.61 1014.53 1014.37 1012.01 1009.73 1009.93 1011.81 1011.57 1012.13 1012.25 1011.37 1010.65 1010.01 1011.69 1010.69 1010.93 1010.73 1011.17 1011.73 1012.45 1012.81 1013.01 1013.17 1013.09 1013.01 1012.89 1013.81 1014.45 1014.65 1014.85 1015.09 1015.37 1015.49 1015.41 1015.53 1015.73 1015.93 1016.09 1015.93 1016.01 1016.17 1016.17 1016.29 1016.37 1016.25 1016.13 1016.01 1016.25 1016.37 1016.25 1016.21 1016.13 1016.17 1016.37 1016.65 1017.13 1017.41 1017.73 1017.97
1013.85 1011.97 1011.53 1013.53 1015.93 1015.13 1013.21 1010.09 1009.61 1009.69 1010.13 1010.65 1011.81 1012.09 1011.69 1011.45 1010.89 1012.09 1011.57 1011.41 1011.81 1011.77 1011.93 1012.17 1012.49 1012.37 1012.61 1012.77 1013.53 1013.65 1013.65 1014.09 1014.73 1015.17 1015.41 1015.69 1015.93 1016.13 1016.21 1016.29 1016.33 1016.41 1016.45 1016.45 1016.49 1016.57 1016.65 1016.69 1016.61 1016.53 1016.69 1016.69 1016.73 1016.69 1016.65 1016.81 1016.77 1016.77 1016.85 1017.13 1017.49 1017.73 1017.97
1012.33 1013.25 1013.81 1016.73 1016.61 1014.05 1011.25 1010.13 1009.65 1009.41 1010.05 1011.05 1011.57 1013.01 1012.65 1012.45 1011.81 1011.09 1011.49 1011.73 1011.97 1012.09 1012.13 1011.97 1011.97 1012.53 1012.97 1013.13 1013.57 1013.85 1014.01 1014.05 1014.49 1015.05 1015.81 1015.93 1016.05 1016.41 1016.45 1016.61 1016.65 1016.61 1016.69 1016.77 1016.89 1017.01 1016.85 1016.85 1016.97 1017.01 1017.17 1017.09 1017.21 1017.41 1017.21 1017.37 1017.53 1017.53 1017.61 1017.57 1017.69 1017.85 1018.05
1014.73 1013.93 1015.29 1017.09 1015.09 1013.65 1012.73 1013.73 1012.29 1011.01 1013.25 1012.57 1013.41 1015.37 1014.37 1012.85 1012.13 1011.85 1012.37 1012.01 1012.25 1011.93 1012.01 1011.97 1012.69 1013.17 1013.65 1014.69 1014.81 1013.89 1013.93 1014.13 1014.33 1014.85 1015.53 1015.89 1016.21 1016.33 1016.37 1016.45 1016.65 1016.57 1016.61 1016.73 1016.85 1016.81 1016.93 1017.09 1017.29 1017.49 1017.37 1017.33 1017.49 1017.61 1017.77 1017.89 1018.01 1018.13 1018.09 1018.25 1018.33 1018.25 1018.49
1012.65 1014.13 1015.81 1015.49 1017.05 1018.81 1016.69 1014.65 1012.29 1009.73 1009.93 1010.33 1011.33 1012.53 1014.25 1012.65 1012.25 1012.21 1012.49 1013.01 1012.13 1012.49 1012.29 1012.65 1013.13 1013.49 1015.09 1016.61 1016.73 1014.89 1014.09 1013.97 1014.41 1014.81 1015.25 1015.49 1015.81 1016.01 1016.29 1016.37 1016.41 1016.49 1016.49 1016.57 1016.73 1016.89 1017.17 1017.33 1017.37 1017.37 1017.41 1017.53 1017.73 1017.97 1018.21 1018.29 1018.45 1018.61 1018.53 1018.61 1018.53 1018.53 1018.65
1013.45 1014.01 1015.73 1016.29 1017.53 1017.89 1015.81 1014.61 1012.57 1011.09 1010.09 1010.61 1011.21 1013.13 1015.41 1013.21 1012.97 1012.93 1013.69 1012.93 1012.65 1012.69 1012.85 1013.25 1013.05 1014.41 1016.05 1017.17 1016.49 1014.89 1014.13 1014.21 1014.25 1014.73 1015.09 1015.37 1015.53 1015.65 1015.93 1016.21 1016.41 1016.33 1016.41 1016.45 1016.65 1016.85 1017.09 1017.45 1017.49 1017.37 1017.41 1017.53 1017.81 1018.21 1018.37 1018.49 1018.65 1018.89 1018.97 1018.97 1018.77 1018.73 1018.77
1013.25 1013.81 1014.77 1016.45 1015.37 1016.93 1015.25 1013.57 1012.29 1011.53 1010.49 1010.73 1012.89 1016.89 1017.01 1013.73 1013.21 1013.53 1014.61 1014.77 1014.13 1013.65 1013.21 1012.77 1013.25 1014.21 1016.25 1016.61 1015.89 1014.05 1013.89 1013.97 1014.29 1014.45 1014.89 1015.17 1015.29 1015.45 1015.53 1015.77 1016.05 1016.13 1016.21 1016.49 1016.73 1016.93 1017.21 1017.37 1017.21 1017.37 1017.49 1017.61 1017.93 1018.17 1018.45 1018.45 1018.73 1019.01 1019.17 1019.09 1018.81 1018.77 1018.85
1013.09 1013.97 1014.57 1015.13 1016.49 1014.61 1013.21 1012.81 1011.77 1011.13 1010.85 1012.17 1017.05 1018.41 1016.09 1013.17 1013.13 1013.77 1014.17 1015.21 1014.25 1013.57 1013.09 1013.29 1014.21 1013.49 1013.17 1013.77 1013.81 1013.49 1013.65 1014.29 1015.09 1015.25 1015.13 1015.41 1015.61 1015.69 1015.81 1016.05 1016.05 1016.17 1016.25 1016.37 1016.69 1016.93 1017.09 1016.93 1016.97 1017.13 1017.33 1017.77 1018.17 1018.45 1018.61 1018.73 1018.97 1018.97 1018.85 1018.77 1018.81 1019.05 1019.21
1013.85 1013.61 1014.25 1016.29 1016.41 1014.69 1013.05 1012.13 1011.73 1011.45 1012.61 1017.05 1018.57 1014.57 1012.97 1013.29 1014.41 1014.25 1014.85 1015.29 1015.49 1015.53 1015.81 1015.93 1015.89 1013.77 1013.33 1013.29 1013.41 1013.89 1014.49 1015.05 1015.49 1015.53 1015.69 1015.81 1015.97 1015.93 1015.85 1015.89 1015.97 1016.33 1016.61 1016.81 1016.81 1016.85 1016.89 1017.05 1017.13 1017.37 1017.61 1018.05 1018.37 1018.61 1018.81 1019.05 1019.05 1018.85 1018.77 1018.77 1018.85 1019.05 1019.33
1013.13 1015.57 1016.49 1017.01 1019.45 1015.25 1012.53 1013.05 1012.33 1012.57 1014.65 1016.45 1014.29 1013.73 1013.45 1014.33 1015.29 1015.41 1015.29 1015.53 1015.77 1015.57 1015.77 1015.61 1016.33 1015.93 1015.21 1014.33 1014.17 1014.37 1014.85 1015.25 1015.61 1015.85 1016.09 1016.37 1016.41 1016.45 1016.45 1016.45 1016.33 1016.37 1016.73 1016.85 1017.01 1017.09 1017.09 1017.21 1017.45 1017.69 1018.01 1018.45 1018.69 1018.85 1019.09 1019.13 1018.89 1018.85 1018.89 1018.97 1019.13 1019.33 1019.49
1017.89 1017.69 1017.85 1018.73 1016.49 1014.61 1013.05 1013.85 1016.17 1014.97 1014.41 1013.65 1013.89 1013.93 1014.89 1014.41 1015.53 1016.09 1016.09 1015.81 1015.41 1015.13 1015.53 1016.09 1016.29 1015.85 1015.69 1015.53 1014.65 1014.81 1015.01 1015.21 1015.53 1015.73 1015.89 1015.93 1016.01 1016.05 1016.05 1016.17 1016.25 1016.33 1016.77 1016.97 1017.21 1017.37 1017.49 1017.65 1017.77 1017.97 1018.29 1018.77 1018.97 1019.21 1019.41 1019.05 1018.89 1018.89 1018.97 1019.09 1019.25 1019.45 1019.57
1016.49 1018.25 1017.05 1015.57 1014.01 1013.77 1013.37 1013.85 1014.65 1014.57 1014.69 1014.45 1013.89 1013.97 1014.01 1014.53 1014.77 1015.13 1016.37 1017.09 1016.41 1015.45 1015.41 1016.61 1017.17 1016.89 1016.37 1015.97 1015.45 1015.37 1015.21 1015.41 1015.61 1015.77 1015.77 1015.69 1015.81 1015.97 1016.29 1016.53 1016.65 1016.89 1017.33 1017.65 1017.77 1017.97 1018.01 1018.05 1018.17 1018.41 1018.61 1019.05 1019.29 1019.53 1019.41 1019.09 1019.17 1019.21 1019.25 1019.29 1019.45 1019.57 1019.57
1014.61 1014.81 1014.89 1014.53 1014.25 1014.13 1014.13 1014.09 1014.41 1014.69 1014.81 1014.81 1014.17 1014.17 1015.21 1014.69 1014.41 1014.33 1015.45 1015.69 1015.69 1015.45 1015.25 1015.89 1016.73 1017.37 1017.49 1017.13 1016.29 1016.29 1015.97 1015.57 1015.61 1015.49 1015.57 1015.81 1016.01 1016.29 1016.57 1016.93 1017.13 1017.41 1017.61 1017.85 1018.17 1018.45 1018.49 1018.45 1018.57 1018.69 1018.85 1019.05 1019.49 1019.57 1019.29 1019.25 1019.33 1019.49 1019.49 1019.57 1019.65 1019.73 1019.65
1015.09 1018.17 1015.89 1015.41 1015.45 1014.77 1014.53 1015.37 1015.01 1014.49 1014.29 1014.41 1014.49 1014.61 1014.45 1014.73 1014.61 1014.41 1014.13 1014.45 1015.17 1015.25 1015.25 1015.57 1016.13 1016.53 1016.49 1016.73 1016.53 1016.21 1015.97 1015.85 1015.85 1015.85 1016.17 1016.41 1016.61 1016.89 1017.29 1017.33 1017.45 1017.73 1017.93 1018.21 1018.41 1018.49 1018.73 1018.65 1018.73 1018.89 1019.09 1019.17 1019.29 1019.25 1019.25 1019.21 1019.41 1019.57 1019.69 1019.73 1019.81 1019.77 1019.77
1016.13 1017.21 1015.77 1015.21 1015.01 1014.73 1014.53 1014.77 1015.65 1015.73 1015.29 1014.81 1014.37 1014.41 1014.73 1014.93 1015.21 1015.09 1015.33 1015.09 1014.77 1015.45 1016.37 1016.17 1015.97 1016.29 1016.33 1016.45 1016.17 1015.85 1016.05 1016.01 1015.97 1016.33 1016.61 1016.93 1017.17 1017.29 1017.33 1017.45 1017.57 1017.89 1018.17 1018.49 1018.69 1018.85 1019.05 1018.97 1018.93 1019.05 1019.13 1019.21 1019.13 1019.05 1018.97 1018.97 1019.25 1019.53 1019.73 1019.81 1019.93 1020.01 1019.93
1015.93 1015.49 1015.29 1015.17 1015.09 1015.29 1015.21 1015.13 1015.17 1015.29 1015.33 1015.33 1015.13 1014.69 1014.73 1015.17 1015.57 1015.77 1015.65 1015.69 1016.01 1016.05 1016.33 1016.29 1016.53 1016.81 1016.89 1016.73 1016.57 1016.85 1017.09 1016.89 1016.65 1016.65 1016.93 1017.21 1017.45 1017.57 1017.69 1017.77 1017.77 1018.17 1018.41 1018.73 1018.97 1019.21 1019.37 1019.25 1019.25 1019.33 1019.37 1019.29 1019.25 1019.25 1019.21 1019.25 1019.33 1019.49 1019.73 1019.77 1019.85 1019.93 1019.93
1016.77 1016.61 1016.17 1015.33 1017.01 1017.57 1016.77 1015.93 1015.41 1015.13 1014.85 1014.89 1015.13 1014.93 1015.13 1015.37 1016.21 1016.13 1016.05 1016.05 1016.49 1016.57 1016.17 1016.69 1016.81 1017.09 1017.21 1016.93 1016.77 1017.17 1017.29 1017.21 1017.21 1017.09 1016.97 1017.01 1017.25 1017.45 1017.57 1017.65 1017.89 1018.21 1018.41 1018.69 1019.05 1019.29 1019.41 1019.45 1019.53 1019.57 1019.61 1019.49 1019.37 1019.33 1019.41 1019.45 1019.49 1019.73 1019.81 1019.85 1019.93 1019.93 1019.93
1017.73 1015.89 1015.45 1015.61 1016.13 1016.53 1016.41 1016.05 1015.37 1015.01 1014.85 1014.89 1015.21 1015.57 1015.61 1015.49 1015.57 1016.49 1016.97 1016.77 1016.29 1016.33 1016.17 1015.93 1016.65 1017.13 1016.81 1016.89 1016.97 1017.13 1017.29 1017.25 1017.29 1017.49 1017.53 1017.69 1017.61 1017.77 1017.73 1018.05 1018.37 1018.61 1018.77 1018.89 1019.05 1019.29 1019.41 1019.45 1019.61 1019.73 1019.73 1019.65 1019.61 1019.53 1019.57 1019.57 1019.65 1019.77 1019.77 1019.85 1019.81 1019.77 1019.81
1015.37 1014.65 1014.57 1014.73 1015.33 1016.49 1016.21 1015.65 1015.61 1015.49 1015.25 1015.29 1015.41 1015.21 1015.21 1015.29 1015.33 1015.45 1015.77 1015.97 1016.41 1016.49 1016.21 1016.21 1015.69 1015.93 1016.21 1016.41 1016.61 1017.01 1017.17 1017.13 1017.25 1017.41 1017.45 1017.49 1017.73 1017.93 1018.05 1018.17 1018.53 1018.85 1019.13 1019.25 1019.37 1019.49 1019.45 1019.49 1019.65 1019.65 1019.77 1019.81 1019.85 1019.77 1019.73 1019.73 1019.73 1019.81 1019.73 1019.77 1019.85 1019.89 1020.05
1016.49 1015.25 1014.69 1014.77 1015.05 1015.29 1015.21 1015.29 1015.33 1015.45 1015.45 1015.57 1015.93 1015.89 1015.57 1015.45 1015.37 1015.37 1015.73 1015.93 1016.13 1016.25 1016.33 1016.17 1016.13 1016.13 1016.21 1016.17 1016.33 1016.85 1017.13 1017.17 1017.25 1017.37 1017.49 1017.61 1017.69 1018.01 1018.09 1018.29 1018.61 1018.89 1019.05 1019.17 1019.33 1019.45 1019.49 1019.57 1019.61 1019.57 1019.69 1019.69 1019.65 1019.73 1019.85 1019.89 1019.89 1020.01 1019.97 1020.01 1020.21 1020.33 1020.41
Wind_Speed
13 15 14 12 9 7 7 9 12 10 3 6 5 4 10 8 7 3 3 5 3 6 2 4 9 12 12 12 10 10 11 10 8 8 8 6 7 11 12 12 10 12 13 12 12 12 13 13 12 10 9 11 11 13 13 14 12 12 12 10 11 9 9
13 13 13 13 11 11 8 8 10 10 6 4 5 5 1 6 3 1 1 5 6 6 2 4 9 10 12 12 12 10 11 11 12 11 10 8 8 8 10 11 11 12 12 13 13 13 14 12 11 13 12 12 12 13 14 14 14 13 13 12 12 10 9
10 10 10 12 15 15 11 6 13 9 9 10 7 3 7 3 3 2 5 6 3 2 3 5 9 10 12 13 10 8 11 12 13 12 11 11 9 11 10 12 12 12 12 13 11 13 14 13 13 9 13 13 13 14 14 15 15 15 14 12 11 9 10
11 9 8 11 11 14 17 12 10 7 8 5 5 6 4 5 4 6 2 3 1 3 3 10 10 11 12 13 14 16 14 13 13 12 13 9 8 6 12 11 13 12 13 14 11 12 14 14 13 12 13 10 14 14 14 14 14 13 13 13 11 10 11
9 10 9 11 9 11 11 10 9 7 7 3 5 3 7 3 4 4 5 4 3 3 3 7 10 12 13 14 14 10 9 10 13 11 10 10 9 6 7 11 12 14 12 13 11 10 11 13 12 11 12 14 12 12 15 14 14 14 14 14 13 10 9
9 9 11 12 12 11 11 10 9 8 6 9 9 7 6 8 7 4 2 3 2 2 3 2 4 4 8 11 12 10 12 8 10 12 12 9 10 5 4 8 12 15 11 10 12 9 4 4 4 7 11 13 10 12 13 12 11 10 10 10 11 9 9
5 11 10 14 14 12 13 11 11 10 8 5 6 5 6 7 5 5 6 4 3 2 3 2 4 3 5 9 4 6 10 12 13 11 13 11 8 5 2 4 9 11 11 10 11 10 8 10 6 4 4 2 11 14 10 9 10 10 12 9 10 8 7
15 10 12 13 12 14 13 13 12 11 12 9 6 6 4 5 3 4 3 2 4 5 4 2 6 6 10 9 8 8 8 10 10 8 13 10 9 5 2 5 4 2 4 7 8 9 7 6 5 3 3 3 5 4 7 10 12 12 12 9 8 9 7
7 10 10 8 11 11 9 8 9 11 9 11 9 6 3 7 5 5 4 4 4 3 6 2 5 7 10 10 9 7 6 7 9 4 1 7 8 9 7 1 1 5 3 5 6 8 5 4 5 3 4 2 3 2 11 4 8 8 7 7 6 9 8
8 7 9 8 9 11 10 11 12 15 14 13 10 10 7 5 4 7 2 5 3 4 7 2 6 7 5 4 5 4 4 4 6 2 0 1 5 4 6 4 3 5 6 6 4 7 7 7 4 4 4 3 2 1 9 7 7 9 6 7 6 8 8
6 3 8 5 12 11 10 12 12 10 8 10 12 7 7 8 5 1 7 9 12 9 7 3 2 4 2 3 4 4 4 7 8 6 6 8 6 7 4 4 2 3 7 8 7 4 6 6 4 4 2 4 3 4 11 8 6 7 5 5 6 6 7
13 14 14 15 18 8 8 10 8 13 15 12 14 12 11 4 2 5 3 11 12 12 13 11 6 3 0 2 4 2 3 4 5 9 9 6 4 5 4 4 1 2 6 8 7 6 5 4 3 3 1 1 2 1 12 2 5 6 6 2 5 5 5
14 12 13 15 12 9 11 12 12 14 14 12 9 11 15 6 7 6 12 11 11 11 12 11 14 13 10 8 7 5 3 4 9 7 10 12 11 7 4 1 6 3 0 5 6 8 5 3 3 3 3 6 8 10 1 7 7 8 5 7 10 7 3
13 12 15 14 11 10 13 15 15 15 13 16 15 14 13 13 7 18 13 12 10 9 11 11 13 11 12 10 12 9 9 7 8 9 8 9 9 8 5 6 4 5 3 4 5 5 5 6 9 9 10 10 8 6 6 3 9 5 4 10 9 7 6
11 12 14 15 16 16 15 13 16 12 16 14 12 6 8 10 8 16 19 16 12 9 11 12 13 11 10 8 8 9 8 9 9 11 11 10 8 9 10 4 5 5 6 5 5 6 5 3 3 5 4 3 8 9 8 8 6 2 5 8 8 3 4
9 9 11 13 13 13 12 15 10 18 15 6 8 5 10 12 6 18 15 12 9 9 12 14 13 12 11 9 9 8 5 8 8 9 11 10 9 9 7 8 5 4 6 6 3 5 7 7 4 5 4 6 7 7 8 9 5 3 5 3 5 6 6
7 9 12 12 13 11 12 2 15 13 9 12 11 13 16 17 13 10 7 8 10 12 13 14 12 11 11 11 9 8 7 7 9 10 10 11 11 10 8 8 8 7 8 8 8 10 9 4 6 7 6 7 8 8 9 9 7 6 7 6 7 7 7
5 7 8 8 7 9 1 6 10 11 11 12 11 11 11 14 12 7 9 10 12 13 11 11 11 12 11 9 9 9 9 9 9 9 9 9 8 7 7 7 8 7 7 7 8 9 8 8 9 8 8 8 8 8 8 7 7 7 8 7 6 8 8
6 6 6 5 8 1 4 5 7 8 7 7 8 8 10 10 9 8 11 12 11 11 10 10 11 12 12 12 12 10 9 9 9 9 8 8 7 8 7 7 7 8 8 8 8 8 9 9 8 8 8 8 8 9 7 7 6 6 7 8 8 8 8
5 7 3 8 2 3 4 5 7 6 7 8 1 6 11 11 10 5 9 12 10 12 13 13 11 13 14 12 11 11 10 9 9 10 9 8 8 8 8 9 8 8 8 8 8 8 7 8 8 8 7 7 9 9 9 9 8 8 6 6 8 8 7
7 2 3 1 6 5 6 8 10 8 3 6 6 3 5 10 9 6 7 9 12 12 13 14 14 14 12 11 8 9 9 10 10 11 10 10 10 11 11 10 10 10 10 10 9 9 8 7 8 8 8 9 9 9 10 10 9 8 8 8 8 8 7
6 6 5 3 4 1 5 9 13 10 7 5 7 2 4 8 10 9 2 8 10 12 13 14 15 12 10 9 6 6 9 10 12 13 13 12 13 13 13 12 13 12 12 11 10 10 11 10 10 9 8 10 11 11 10 10 10 8 6 7 7 8 8
7 7 6 4 3 1 4 7 12 11 9 6 3 2 4 6 9 4 6 5 6 12 12 14 11 8 7 8 7 7 9 11 11 12 12 13 13 14 13 13 14 14 13 13 13 12 12 13 10 9 10 11 11 10 9 10 10 9 8 7 7 8 9
7 5 5 4 4 4 0 6 6 7 12 4 2 3 1 7 4 6 7 3 8 10 10 11 10 8 9 10 9 10 11 11 11 11 14 13 13 13 14 14 13 13 13 13 13 13 13 12 10 10 9 10 12 12 11 10 11 10 8 7 8 8 9
7 6 5 7 5 5 6 8 7 6 8 4 3 2 3 4 4 4 4 4 8 5 3 3 4 0 1 13 13 12 12 12 12 12 11 12 12 12 13 13 12 10 10 10 12 12 11 11 11 10 10 10 10 11 11 10 10 8 7 7 7 7 7
4 4 5 4 5 7 12 11 6 9 9 1 2 2 1 4 8 5 8 9 9 6 9 7 9 3 13 15 15 15 14 14 14 13 13 13 13 12 11 10 10 11 11 11 11 11 10 10 10 9 9 10 9 8 9 11 10 6 5 6 6 7 8
1 7 3 2 1 6 15 16 2 10 2 5 2 3 6 13 11 9 9 8 6 5 4 4 1 4 7 12 16 16 15 14 14 14 13 12 11 11 11 11 11 10 10 10 11 10 9 9 8 8 9 10 9 8 9 8 7 6 6 5 6 6 6
4 3 2 2 2 5 10 12 8 7 6 6 4 2 5 8 11 10 5 4 1 3 5 6 5 6 10 10 14 14 13 14 14 14 12 12 11 12 11 10 10 11 11 11 10 11 9 8 7 7 7 8 8 8 8 6 5 6 6 6 5 5 5
3 2 4 4 4 8 9 9 8 8 10 8 4 5 5 6 6 9 10 7 3 3 10 10 1 4 6 7 6 9 15 14 14 13 12 12 12 12 12 11 11 10 10 11 10 10 8 8 7 6 6 7 8 8 6 4 5 5 5 5 5 4 4
12 11 7 6 8 8 8 9 10 9 8 8 8 8 6 6 5 6 9 11 11 9 9 12 10 7 4 4 8 6 6 13 12 10 12 12 12 13 12 11 11 11 10 10 10 10 9 8 7 6 6 6 7 6 5 4 5 5 4 4 4 5 4
4 5 5 8 9 9 9 9 8 9 9 9 8 7 6 6 5 6 6 7 10 9 8 11 11 12 11 11 6 10 8 11 9 11 12 11 11 11 11 10 10 9 9 9 9 9 9 7 7 7 7 6 5 5 5 5 6 5 4 4 4 3 4
4 7 7 9 11 10 10 9 8 9 9 9 9 9 8 6 6 7 8 10 6 11 10 5 9 9 7 6 6 11 10 8 9 10 10 10 10 10 9 9 9 9 8 9 9 9 8 6 6 6 6 6 5 5 5 5 6 5 4 4 4 4 4
7 8 8 7 10 10 10 10 11 10 9 9 10 9 9 9 8 9 7 6 9 8 9 10 11 13 11 6 7 8 7 9 9 10 10 9 9 8 9 8 8 8 8 9 9 8 7 6 6 5 5 5 6 6 6 5 4 4 5 4 4 4 4
6 5 6 5 2 6 7 9 9 11 11 10 8 7 9 10 11 6 4 5 7 5 6 5 6 10 9 10 9 9 6 5 7 9 10 10 10 9 9 7 9 9 9 9 9 8 7 6 5 5 5 4 4 5 4 4 4 5 4 4 4 4 3
6 5 10 10 10 8 7 7 9 10 10 11 11 9 7 8 9 9 7 7 9 8 5 4 9 8 8 9 8 8 7 6 6 6 6 6 6 7 8 9 8 7 7 7 8 8 7 5 6 5 4 4 4 4 4 4 4 4 4 3 3 4 4
8 5 5 5 5 7 7 9 9 9 9 10 11 11 9 7 7 8 8 7 6 4 4 1 3 5 7 8 8 8 8 8 7 7 6 6 6 6 6 7 8 8 7 6 6 7 6 6 6 5 5 5 4 5 3 4 3 3 3 3 2 4 5
7 3 6 7 8 8 8 9 9 9 9 9 10 11 10 9 8 8 8 8 7 5 4 5 6 3 2 5 5 6 6 7 8 9 7 7 7 7 6 8 8 7 7 7 6 6 6 7 6 6 6 5 5 5 5 3 3 2 3 3 5 5 4
Wind_Direction
191 209 223 230 268 244 154 178 212 229 178 216 224 269 313 212 205 225 190 163 128 122 74 104 146 158 162 170 166 165 178 186 193 205 212 205 212 181 184 178 182 174 174 186 171 175 173 165 186 164 158 164 158 159 165 165 168 171 170 173 166 176 167
182 192 218 243 231 253 311 208 198 226 236 252 244 285 243 267 232 285 348 244 154 193 138 157 156 169 168 178 178 160 169 173 187 203 208 201 188 206 189 181 177 183 179 189 180 180 177 172 180 169 163 171 153 167 167 168 170 172 172 175 172 173 173
162 166 209 224 243 253 257 280 2 252 182 213 191 172 243 254 282 123 273 239 93 286 101 166 184 181 177 180 164 167 180 184 188 193 199 195 207 182 195 187 178 188 183 190 188 181 175 170 173 191 168 175 167 169 171 172 174 175 174 177 173 171 178
163 188 193 222 206 232 245 271 253 274 291 246 219 208 282 172 236 155 98 112 214 149 159 183 188 192 187 182 177 187 192 191 181 188 191 185 183 195 183 187 183 191 188 187 182 189 171 172 176 179 177 182 175 173 168 174 174 177 175 176 170 175 182
232 206 185 225 211 204 211 224 251 236 230 164 229 211 250 274 298 286 167 168 190 130 131 177 193 197 191 187 186 176 194 200 188 185 189 183 180 201 186 183 186 194 190 181 179 190 178 169 174 181 188 183 182 179 174 176 172 179 179 180 170 177 180
228 258 179 222 223 212 219 212 220 241 212 206 201 228 242 245 237 251 161 130 228 138 143 186 153 196 207 189 183 150 178 197 200 191 186 179 172 188 206 188 182 199 186 176 182 187 123 85 180 189 183 192 182 189 173 179 168 175 180 182 167 176 178
235 204 201 190 237 228 223 217 226 222 251 233 233 244 226 255 252 285 90 150 183 108 119 168 137 62 103 72 57 130 165 184 197 194 184 174 164 154 255 211 199 191 184 179 178 167 151 160 195 152 73 357 190 192 175 178 161 174 176 185 165 167 179
295 267 199 185 213 243 236 218 228 212 223 234 237 236 276 268 275 252 144 37 26 53 45 50 68 64 80 81 120 177 177 185 187 191 181 173 156 118 282 298 7 106 181 178 174 165 136 160 134 100 78 102 18 333 197 176 170 176 178 177 160 161 177
273 273 174 189 177 224 253 251 208 242 244 231 240 216 209 276 284 297 103 122 206 6 351 65 72 89 105 146 186 181 176 189 181 176 155 155 148 157 160 220 29 53 62 175 166 131 134 137 119 99 113 92 61 59 293 202 171 173 182 161 158 158 172
238 247 187 205 186 201 221 248 252 204 222 233 230 232 181 215 208 268 173 138 153 103 301 267 112 94 117 140 109 208 221 179 114 71 235 319 85 72 150 148 102 92 81 55 109 124 141 133 117 120 97 18 88 140 266 224 170 173 182 154 161 151 171
251 54 326 308 284 175 219 216 238 275 203 229 257 262 253 218 192 36 33 126 134 148 193 240 69 73 135 184 152 178 198 147 153 147 143 176 132 187 159 98 31 99 84 72 52 105 107 92 103 118 110 165 231 202 237 206 177 169 158 149 161 159 167
278 295 313 314 297 265 203 226 228 248 270 230 211 223 235 177 138 133 38 116 136 147 152 152 157 148 218 274 137 111 183 148 168 155 155 151 164 218 137 160 203 318 103 91 74 55 97 96 126 64 47 306 336 117 265 216 44 39 19 64 166 161 174
274 272 283 266 264 263 283 274 229 230 234 273 236 235 264 276 223 156 165 151 133 152 146 150 149 169 181 178 126 186 170 183 146 152 160 162 164 171 204 195 170 267 324 112 105 95 92 165 123 86 184 208 206 203 15 34 62 21 27 24 16 2 331
275 254 239 243 265 279 260 261 238 206 227 226 241 240 212 239 129 130 133 122 111 130 138 144 141 148 144 143 137 169 169 168 145 160 162 157 160 156 174 208 157 183 198 134 132 107 128 153 156 169 210 212 191 135 149 118 105 173 83 45 25 344 348
276 266 250 233 228 239 255 279 290 225 213 230 238 299 310 283 158 125 128 116 114 115 128 125 118 128 123 142 148 144 154 159 154 146 145 137 148 158 171 204 218 207 161 154 142 136 146 137 113 139 191 95 90 118 109 91 67 72 108 119 151 170 29
267 263 260 249 244 240 249 260 290 16 1 317 18 333 13 9 343 126 116 118 124 130 122 120 122 132 140 128 128 132 140 135 134 135 129 137 154 153 159 168 165 63 69 65 79 163 161 150 120 92 60 73 80 85 104 114 145 151 105 137 140 97 87
264 289 290 282 260 250 239 316 8 357 6 6 16 28 15 13 9 125 134 122 125 134 134 132 138 139 131 136 132 121 111 88 97 101 107 88 86 94 96 94 100 84 61 64 60 46 35 52 83 68 68 77 88 92 94 113 131 129 119 116 100 89 84
295 278 285 289 276 247 310 347 345 13 26 22 24 23 14 7 14 86 106 107 117 125 128 129 134 132 130 126 111 112 105 95 94 103 98 104 106 107 104 100 90 84 86 85 68 62 61 45 44 55 70 85 84 85 94 88 108 127 126 119 115 106 98
259 286 276 253 239 256 324 319 18 33 37 41 44 43 34 17 22 92 107 120 122 122 124 125 127 122 113 116 106 107 107 111 115 106 104 106 115 119 118 108 100 98 100 89 77 70 61 58 57 67 71 73 77 77 72 65 55 87 104 111 108 106 100
274 256 262 250 94 292 260 67 30 45 57 30 163 92 38 21 3 39 108 120 122 130 127 124 125 117 110 114 106 109 115 116 119 119 121 124 125 122 118 115 111 110 105 97 91 82 77 77 71 70 75 80 82 79 80 79 79 76 61 77 96 96 93
265 294 287 120 256 257 25 22 356 15 21 15 32 54 49 20 15 42 126 133 139 129 125 127 116 106 108 104 94 119 123 120 114 117 116 117 118 115 113 108 108 110 105 102 99 97 93 92 89 83 83 86 89 87 82 80 71 59 61 62 62 76 85
273 240 231 198 72 316 325 316 323 351 31 59 52 338 82 25 22 13 84 143 126 129 129 127 126 129 116 109 108 136 128 127 125 115 116 117 117 115 113 112 114 111 108 106 101 102 101 96 97 100 94 92 86 85 87 90 87 76 72 76 81 81 85
219 238 247 224 223 95 222 275 315 346 346 51 356 287 16 38 4 3 345 135 139 135 144 136 149 159 145 133 137 147 135 133 130 129 128 124 121 118 114 114 111 110 109 109 110 107 102 101 98 97 96 94 94 89 89 89 85 84 76 71 68 75 81
250 268 258 337 18 68 212 284 320 322 322 96 87 257 267 356 3 14 8 309 180 172 159 161 172 176 150 149 152 152 146 137 126 126 131 129 125 120 121 115 109 111 115 115 109 107 105 104 100 93 90 92 92 95 93 92 91 87 82 79 78 73 68
223 210 247 147 120 67 5 340 327 316 331 12 138 224 18 336 4 75 139 310 358 20 134 162 189 52 118 134 137 148 132 123 108 104 105 108 110 109 107 112 121 120 111 103 104 106 109 109 108 101 96 85 84 92 96 91 85 87 87 85 86 88 88
249 281 277 62 92 34 344 356 347 343 289 180 243 54 230 39 50 353 21 18 32 28 17 6 334 17 115 126 129 126 124 122 124 119 115 111 109 113 117 119 110 102 104 104 102 100 103 107 102 96 93 89 86 82 86 92 96 91 86 87 85 91 95
262 75 57 98 107 4 3 348 302 15 5 168 355 72 65 90 98 59 45 46 53 32 20 18 11 12 74 128 127 119 117 126 121 116 113 115 116 113 107 103 113 120 117 110 99 94 89 86 93 95 92 91 88 84 81 82 93 90 95 93 92 93 99
41 341 65 61 64 352 23 17 25 25 50 72 55 47 86 104 124 125 115 90 38 34 16 35 63 99 140 149 119 115 126 123 119 122 123 123 125 122 117 114 104 93 89 89 88 85 86 86 86 85 88 90 88 87 78 74 81 93 98 104 108 104 102
60 109 79 55 30 33 40 35 41 45 36 33 43 78 67 82 99 127 132 142 181 145 117 112 78 42 28 44 62 133 133 122 124 127 131 130 118 109 104 100 97 96 94 92 95 94 85 84 77 80 87 96 97 94 97 98 96 95 98 106 108 109 99
87 65 43 53 49 55 59 43 40 36 49 33 20 62 71 55 72 113 132 140 144 135 128 130 130 113 87 67 91 51 114 122 122 122 118 107 103 104 103 101 99 100 101 100 98 96 94 95 99 102 107 106 105 108 115 115 105 90 89 96 106 112 119
165 88 61 68 64 58 56 68 58 61 52 53 54 53 66 80 66 68 57 101 127 122 133 139 140 143 149 151 179 157 140 117 125 118 108 108 108 106 101 102 106 103 106 108 105 104 103 101 102 99 93 97 108 128 133 132 122 125 124 108 105 108 111
80 118 109 88 74 61 50 51 64 67 58 55 55 59 68 68 67 38 23 357 95 129 143 124 117 115 118 127 131 123 120 126 123 110 104 102 104 107 112 111 108 109 107 102 100 97 92 91 92 104 115 121 146 160 148 123 113 124 128 130 120 118 114
111 114 123 116 108 81 64 63 72 72 65 55 57 54 74 86 58 59 43 42 11 54 74 115 105 110 128 133 94 79 76 98 104 112 110 108 111 120 121 121 120 114 114 111 110 108 101 96 94 83 84 81 76 72 77 100 131 125 118 121 123 124 118
153 157 141 144 147 94 69 53 54 64 76 87 79 68 67 81 96 60 28 73 84 66 92 70 94 104 117 120 124 124 139 121 109 112 123 131 136 134 128 128 124 126 125 127 124 117 113 110 109 107 104 114 123 112 113 117 122 119 124 126 138 133 121
119 90 95 110 119 103 80 64 51 57 61 66 76 77 72 75 94 122 143 143 143 145 127 142 139 145 134 129 135 136 130 129 125 128 124 130 131 125 135 130 127 123 127 125 124 123 123 124 115 123 116 103 94 97 112 125 135 141 148 151 145 142 143
62 37 122 125 99 94 93 80 72 66 58 63 67 72 76 75 77 94 100 96 95 100 133 210 46 108 157 154 156 144 145 142 146 159 168 156 145 143 150 143 134 134 132 132 132 130 134 136 136 131 127 121 121 122 117 121 139 148 170 165 105 74 76
100 41 70 87 99 116 103 93 85 82 76 72 68 63 62 72 76 75 79 92 103 103 75 91 115 94 88 137 146 148 157 157 160 165 166 168 156 157 173 148 148 139 144 137 137 139 142 141 142 137 127 129 131 125 131 134 132 126 102 95 98 97 96